Location: Unnamed
(34.9039°S, 56.1757°W)
Time: 02:16:26
(UTC-03:00)

ISS - Visible Passes

Search period start: 10 December 2023 00:00
Search period end: 20 December 2023 00:00
Orbit: 415 x 417 km, 51.6° (Epoch: 09 December)

Date Brightness Start Highest point End Pass type
(mag) Time Alt. Az. Time Alt. Az. Time Alt. Az.
10 Dec -0.3 03:20:30 10° S 03:22:09 13° SSE 03:23:48 10° SE visible
10 Dec -2.5 21:35:55 10° WNW 21:39:10 43° SW 21:42:28 10° SE visible
11 Dec -2.5 04:07:20 10° SW 04:10:38 45° SE 04:13:53 10° ENE visible
11 Dec -3.7 20:47:04 10° NW 20:50:27 84° SW 20:53:52 10° SE visible
11 Dec -0.2 22:26:04 10° SW 22:27:39 13° SSW 22:29:13 10° S visible
12 Dec -1.4 03:18:53 10° SSW 03:21:50 26° SE 03:24:46 10° E visible
12 Dec -0.6 21:36:15 10° WSW 21:38:42 18° SSW 21:41:10 10° SSE visible
13 Dec -0.7 02:30:35 10° SSW 02:32:58 17° SSE 02:35:20 10° ESE visible
13 Dec -3.7 04:06:35 10° WSW 04:09:54 52° NW 04:13:11 10° NNE visible
13 Dec -1.4 20:46:49 10° W 20:49:49 28° SW 20:52:49 10° SSE visible
14 Dec -0.3 01:42:34 10° S 01:43:59 12° SSE 01:45:24 10° SE visible
14 Dec -3.7 03:17:48 10° SW 03:21:13 78° SE 03:24:34 10° NE visible
15 Dec -0.8 02:29:10 10° SW 02:29:25 12° SSW 02:29:25 12° SSW visible
15 Dec -0.4 20:47:33 10° WSW 20:49:20 13° SSW 20:51:06 10° S visible
16 Dec -0.4 01:40:40 10° SSW 01:40:45 10° SSW 01:40:45 10° SSW visible
17 Dec -0.3 00:52:19 10° SSW 00:52:46 12° S 00:52:46 12° S visible
18 Dec -0.3 00:04:20 10° S 00:05:03 11° SSE 00:05:03 11° SSE visible
